Location: Sandbach
(53.1410°N, 2.3660°W)
Time: 19:40:11
(UTC+00:00)

ISS - Pass Details

Date: 02 October 2022
Orbit: 415 x 420 km, 51.6° (Epoch: 30 November)

Event Time Altitude Azimuth Distance (km) Brightness Sun altitude
Rises 20:00:39 0° 279° (W) 2,373 2.2 -12.3°
Reaches altitude 10° 20:03:07 10° 262° (W) 1,505 0.3 -12.6°
Maximum altitude 20:05:38 20° 214° (SSW) 1,047 -1.5 -13.0°
Drops below altitude 10° 20:08:09 10° 165° (SSE) 1,497 -1.2 -13.4°
Enters shadow 20:08:32 - 161° (SSE) 1,619 -1.1 -13.4°
